Location: Banff
(51.1667°N, 115.5667°W)
Time: 15:49:33
(UTC+00:00)

Altair - Pass Details

Date: 03 December 2020
Orbit: 1501 x 1682 km, 47.2° (Epoch: 15 January)

Event Time Altitude Azimuth Distance (km) Brightness Sun altitude
Rises 02:49:07 0° 218° (SW) 4,753 10.6 -29.0°
Reaches altitude 10° 02:52:28 10° 211° (SSW) 3,745 9.8 -29.5°
Enters shadow 03:00:33 40° 152° (SSE) 2,127 7.9 -30.8°
